Probability
0 0 0 0 0 0 0 0 0 0 0 0 0 2 11 25 42 55 59 58 56 54 53 57 61 59 55 53 51 45 38 35 31 24 17 12 10 8 8 7 6 5 4 3
0 0 0 0 0 0 0 0 0 0 0 0 0 2 9 21 36 49 57 58 57 56 56 58 60 58 55 53 50 43 37 34 29 23 17 13 10 7 6 6 6 5 4 4
0 0 0 0 0 0 0 0 0 0 0 0 0 1 5 15 28 42 53 59 61 60 59 59 57 54 51 48 44 38 33 29 23 18 15 12 9 5 3 4 5 5 5 5
0 0 0 0 0 0 0 0 0 0 0 0 0 0 3 10 21 35 47 57 61 60 57 55 51 47 44 40 35 29 25 21 17 13 12 11 8 4 1 2 4 5 5 5
0 0 0 0 0 0 0 0 0 0 0 0 0 1 2 7 16 27 39 50 57 55 51 46 41 37 35 33 27 21 16 15 14 11 10 9 6 3 1 1 3 4 3 3
0 0 0 0 0 0 0 0 0 0 0 0 0 1 2 4 11 20 31 44 52 51 44 38 33 30 30 28 25 18 13 12 11 9 7 6 4 2 1 1 1 2 2 2
0 0 0 0 0 0 0 0 0 0 0 0 0 0 1 2 8 18 27 38 48 48 41 34 31 30 29 27 25 21 15 11 9 7 6 5 4 4 3 1 1 1 1 1
0 0 0 0 0 0 0 0 0 0 0 0 0 0 1 4 11 19 25 33 41 40 35 33 32 31 29 28 26 22 16 10 7 6 6 6 6 5 3 1 1 1 1 2
0 0 0 0 0 0 0 0 0 0 0 0 0 0 3 10 16 20 24 29 32 30 28 28 26 25 26 25 22 18 15 11 8 6 6 5 5 4 2 0 0 0 1 2
0 0 0 0 0 0 0 0 0 0 0 0 0 0 3 11 18 20 22 25 26 23 22 22 18 17 20 20 16 14 13 12 9 7 5 4 2 1 0 0 0 0 0 1
0 0 0 0 0 0 0 0 0 0 0 0 0 0 3 10 17 19 20 22 22 20 19 18 15 13 14 14 13 13 13 12 11 8 6 3 2 1 0 0 0 0 0 0
0 0 0 0 0 0 0 0 0 0 0 0 0 1 4 10 17 20 22 21 18 16 17 18 16 14 11 11 11 12 12 12 10 8 5 3 3 2 0 0 0 0 0 0
0 0 0 0 0 0 0 0 0 0 0 0 0 1 5 12 18 22 25 24 19 18 19 18 17 14 10 9 9 11 12 11 8 5 3 2 2 1 0 0 0 0 0 0
0 0 0 0 0 0 0 0 0 0 0 0 0 1 5 13 20 23 25 25 23 23 22 20 17 15 13 10 9 9 10 9 5 2 1 0 0 0 0 0 0 0 0 0
0 0 0 0 0 0 0 0 0 0 0 0 1 2 6 13 19 22 26 30 31 29 27 23 20 18 15 11 9 7 7 5 2 1 0 0 0 0 0 0 1 1 0 0
0 0 0 0 0 0 0 0 0 0 0 1 3 4 8 13 18 23 31 38 40 33 28 26 23 20 15 9 5 4 3 3 2 0 0 0 0 0 1 1 2 2 1 0
0 0 0 0 0 0 0 0 0 0 1 3 5 9 14 19 22 28 36 43 40 32 26 24 21 18 12 6 3 3 4 5 4 2 1 1 1 1 1 2 2 2 1 0
0 0 0 0 0 0 0 0 0 2 5 7 11 17 24 30 34 36 37 37 34 28 22 18 14 12 8 6 5 6 9 10 8 5 3 3 2 1 1 1 1 1 0 0
0 0 0 0 0 0 0 1 2 7 13 17 21 28 35 40 44 43 38 34 30 25 19 12 8 7 6 5 6 8 10 11 10 8 5 3 2 1 1 0 0 0 0 0
0 0 0 0 0 0 1 3 5 10 17 23 30 37 42 43 43 41 38 34 29 23 16 8 5 6 7 6 6 7 8 9 9 8 5 3 3 4 3 1 0 0 0 0
0 0 0 0 0 1 5 8 7 9 16 27 35 40 43 43 41 39 37 33 27 22 16 9 5 6 7 6 6 7 7 8 7 6 5 4 5 5 4 2 1 0 0 0
0 0 0 0 1 4 9 11 9 11 22 33 39 41 44 47 45 39 34 28 26 23 19 14 8 6 6 6 6 8 8 6 5 4 4 4 4 4 4 3 2 1 0 0
1 0 2 6 10 12 15 16 15 20 30 39 45 46 47 47 43 35 28 25 24 21 18 15 11 6 5 5 6 7 6 5 4 3 3 3 3 3 4 3 3 1 0 0
1 1 6 15 21 23 23 24 26 30 35 40 44 45 44 41 36 29 24 22 20 16 13 11 9 6 4 3 4 4 4 3 3 3 3 3 3 3 3 3 2 1 0 0
1 2 8 18 23 23 24 27 30 34 35 35 36 36 34 32 29 25 19 18 16 12 9 7 6 5 3 1 1 1 1 2 2 2 3 3 3 3 2 2 1 1 0 0
1 2 9 16 16 16 18 22 29 33 33 31 30 29 27 26 25 21 16 14 12 9 6 5 4 2 1 0 0 0 0 1 1 1 2 3 3 2 1 1 0 0 0 0
Wind_Speed
2 2 5 9 8 8 7 8 10 11 7 0 2 3 5 7 11 11 10 9 9 8 7 9 10 10 9 8 9 10 10 9 7 5 4 4 3 3 3 3 5 6 6 6
2 7 13 9 8 8 9 9 9 9 7 1 1 1 1 5 9 13 14 11 10 7 6 8 9 10 10 10 9 9 10 9 8 5 4 3 3 3 3 3 4 5 5 6
9 9 6 8 10 9 10 7 7 7 6 5 3 5 4 1 3 6 9 10 11 12 11 10 9 9 10 10 11 10 10 9 8 7 4 3 2 2 2 2 3 4 5 5
8 12 11 10 10 8 9 9 6 3 3 4 2 1 5 0 3 5 7 8 9 9 9 9 9 9 10 10 9 9 9 9 8 7 7 7 5 4 5 4 4 4 5 5
8 6 7 10 12 8 9 8 3 1 1 3 5 2 5 2 2 4 7 9 10 10 10 10 10 10 9 9 9 9 9 8 7 7 8 7 5 4 3 3 4 4 3 4
9 8 6 8 9 7 6 3 7 6 6 2 4 2 4 2 4 4 5 9 9 9 9 8 7 7 6 7 8 8 8 8 8 7 7 7 7 5 5 5 5 4 3 3
7 10 8 5 6 6 0 5 5 6 5 5 4 2 6 5 3 4 6 8 8 7 8 7 7 7 7 8 8 7 8 7 7 7 7 7 7 7 7 6 6 5 3 3
5 9 7 6 9 7 4 10 8 5 5 5 4 2 5 2 3 5 4 6 7 6 6 7 7 7 7 8 8 8 8 7 7 7 6 6 6 5 4 5 5 5 4 4
7 8 7 7 6 9 5 5 9 8 2 1 3 3 3 2 5 6 6 5 5 6 6 7 6 6 6 7 7 8 8 7 6 6 5 5 6 6 6 5 5 4 4 4
9 6 9 6 2 4 9 8 6 6 4 2 3 3 5 5 5 4 4 5 4 6 7 6 5 5 5 5 5 6 7 6 6 6 5 4 5 5 5 5 5 5 4 4
10 7 8 4 3 6 3 4 6 5 6 7 3 7 7 9 10 9 6 6 7 7 7 7 5 5 5 5 5 5 6 5 4 5 4 4 3 3 4 4 4 4 4 4
10 8 6 9 8 6 7 8 9 6 5 6 5 7 3 7 7 7 6 6 5 7 7 7 6 5 5 5 5 5 5 5 4 4 4 4 3 3 3 3 4 4 4 4
10 8 3 8 8 3 2 5 7 7 6 5 5 5 0 5 6 6 6 6 5 5 5 5 5 5 5 5 5 5 5 5 4 4 4 3 3 3 3 3 3 4 4 3
10 7 9 11 9 4 2 3 4 7 5 5 7 7 4 6 7 6 6 7 6 6 6 6 6 5 5 5 5 5 5 5 5 5 4 3 3 3 3 3 3 3 4 4
6 6 6 7 6 3 2 3 3 5 8 9 9 11 13 13 12 11 10 9 9 7 7 7 7 6 6 5 5 5 5 5 5 5 5 4 4 4 3 3 3 4 4 4
3 4 3 1 1 1 1 4 3 4 4 5 7 6 7 9 9 10 11 12 11 8 8 8 8 7 7 7 6 6 5 5 5 5 5 4 5 5 4 4 4 5 5 5
2 4 4 1 1 3 3 4 3 4 4 8 9 9 10 9 12 12 11 11 11 10 8 8 7 7 6 6 7 7 6 5 6 6 5 5 5 5 5 5 5 5 5 5
3 3 4 2 2 4 9 5 3 1 2 3 7 11 15 12 8 6 8 11 11 10 8 7 7 6 5 5 5 6 6 6 6 6 6 6 6 6 6 6 5 5 5 5
5 6 4 4 3 4 6 4 1 2 2 1 9 12 10 10 8 4 3 8 9 10 9 7 6 7 6 6 6 7 6 6 6 5 5 5 6 7 6 6 5 5 6 6
5 6 5 4 3 5 7 5 1 6 1 1 8 13 12 9 6 3 4 8 8 8 7 8 7 7 6 5 6 8 7 6 5 5 5 5 6 7 7 6 6 6 7 7
3 3 4 4 3 6 6 4 3 4 7 4 7 10 9 5 6 7 8 8 8 8 9 9 8 7 5 5 7 7 6 5 5 5 5 5 5 6 7 7 6 7 8 8
4 3 4 4 4 7 5 2 4 6 4 6 7 7 9 9 11 10 10 9 8 9 9 9 8 6 4 5 7 6 5 4 5 6 6 5 5 6 6 8 7 8 8 9
1 4 5 6 6 5 2 3 4 6 8 6 7 8 12 13 11 10 9 9 8 8 8 7 8 6 4 3 5 6 4 5 6 7 6 5 6 6 6 7 8 7 7 7
4 2 2 1 1 1 3 5 5 5 7 7 8 10 11 12 11 10 9 8 8 7 7 7 7 7 5 3 4 4 5 5 7 7 6 6 6 7 6 5 5 6 6 7
3 2 3 2 1 4 5 3 5 7 9 10 8 8 10 13 11 10 9 8 7 6 5 6 6 6 5 4 4 4 5 7 8 7 7 6 7 7 7 6 5 4 4 5
1 2 2 3 4 3 1 1 4 9 8 9 11 9 8 10 11 10 8 6 6 6 6 6 5 5 5 5 4 3 4 6 8 8 7 6 6 6 7 8 8 13 10 11
Wind_Direction
237 138 233 233 215 219 254 278 282 281 284 242 206 190 185 164 156 158 161 161 161 170 161 152 151 153 154 157 157 157 157 159 153 149 153 152 159 161 163 172 171 173 168 163
335 252 237 238 249 249 260 270 282 294 302 302 172 254 198 168 168 163 159 161 159 154 150 154 153 156 163 167 165 160 162 164 165 165 158 153 149 163 164 168 177 177 172 172
214 243 239 236 253 260 264 252 260 272 313 0 60 359 351 25 130 149 151 156 158 165 164 167 164 164 165 170 170 167 167 168 169 162 141 130 109 98 135 168 185 189 179 178
243 250 256 259 259 243 266 260 259 288 9 325 46 305 301 239 138 152 153 152 164 171 167 171 169 170 172 173 169 163 165 166 166 161 160 166 170 178 190 182 188 191 184 176
242 241 233 242 246 237 239 259 280 313 80 13 2 97 293 358 143 179 166 168 172 174 170 173 176 174 171 167 165 165 165 167 167 168 171 175 177 185 176 172 180 187 186 186
255 270 245 235 253 242 243 359 17 39 62 9 279 146 274 260 211 193 174 171 172 168 165 168 165 156 160 161 163 165 167 172 173 173 174 177 179 177 172 176 179 178 178 194
287 281 265 257 277 294 111 85 27 356 6 258 272 147 245 250 189 162 173 167 159 156 157 160 159 162 163 164 167 167 168 175 177 176 179 183 185 180 180 181 182 177 180 194
231 274 254 225 200 207 199 141 158 196 225 276 326 225 259 265 105 114 126 141 142 153 153 158 163 162 162 166 168 167 171 175 178 181 187 189 187 184 186 187 183 186 189 194
203 253 267 241 205 169 180 184 173 144 171 252 289 293 320 34 76 93 101 103 133 149 148 148 149 148 152 156 164 168 166 169 173 180 184 185 183 182 184 185 184 185 187 191
182 254 283 278 211 209 175 164 106 122 159 227 265 236 212 198 160 127 135 142 142 140 142 144 146 148 149 155 156 155 159 165 171 174 178 182 183 181 178 173 182 185 186 185
178 205 282 333 203 205 185 154 132 135 154 154 204 256 222 187 170 162 166 157 157 149 150 150 152 156 146 137 141 146 150 150 157 163 165 162 164 168 164 167 177 180 179 175
179 164 238 257 255 211 179 183 152 158 211 163 167 256 272 165 159 151 153 156 147 147 152 151 152 147 134 131 139 143 145 144 149 147 142 145 143 143 152 163 172 168 168 169
164 147 199 315 327 330 185 184 166 144 134 156 166 247 284 121 129 140 139 134 124 129 136 138 137 141 145 143 142 142 140 140 140 135 131 135 135 137 144 154 156 152 154 152
146 138 170 198 213 222 236 241 173 134 157 197 199 192 193 166 152 146 143 144 145 150 155 152 146 144 150 152 149 147 144 147 146 140 136 142 146 144 144 141 141 142 143 142
124 152 176 193 199 183 220 265 232 185 188 184 202 183 192 185 170 163 164 154 152 159 161 158 153 147 144 144 145 144 141 141 140 136 137 146 140 133 125 121 117 113 116 121
66 137 144 200 219 92 293 284 281 243 196 172 152 194 192 173 158 159 160 154 154 163 163 156 150 148 152 155 152 147 143 142 135 133 136 131 122 119 115 109 103 98 96 98
22 104 108 218 328 51 279 251 246 261 225 167 181 194 160 162 171 168 161 158 157 158 154 151 152 153 155 155 152 152 149 139 132 132 132 130 125 118 113 113 104 102 97 94
132 101 120 136 85 216 243 249 203 218 273 183 162 158 159 157 149 148 157 155 153 147 141 144 149 146 145 141 136 136 135 136 133 131 134 133 127 123 117 112 110 105 100 98
137 130 114 120 167 262 290 292 197 135 337 109 136 140 132 119 90 69 148 149 148 145 145 146 148 137 133 134 131 121 119 122 123 128 136 138 137 133 128 124 121 114 108 99
82 103 117 128 154 218 247 274 217 103 7 284 138 142 143 128 125 186 161 132 126 125 129 128 123 116 124 134 126 120 123 121 125 131 133 133 135 133 130 128 121 112 106 103
32 58 130 157 192 246 254 286 63 122 211 199 143 145 146 146 159 151 127 114 116 120 119 116 114 115 122 126 123 124 127 132 134 124 116 115 123 127 128 123 116 113 109 104
183 170 185 158 181 242 279 65 146 189 167 137 130 133 128 119 114 114 113 110 110 110 111 112 112 111 110 117 123 124 128 129 122 117 112 110 115 122 125 122 118 117 117 111
182 189 191 183 204 236 259 140 145 136 127 130 132 131 129 125 125 123 116 115 113 111 109 108 111 107 96 103 124 133 135 129 124 120 119 116 113 110 117 124 127 124 122 120
316 355 89 75 9 41 74 88 90 108 118 125 130 131 131 129 130 126 121 119 114 111 112 110 110 109 101 91 94 119 128 129 127 126 124 120 117 110 103 104 115 125 131 132
280 6 47 75 63 42 32 61 111 103 100 104 107 116 127 126 125 124 122 121 116 111 109 111 113 118 117 109 106 110 127 130 126 124 122 118 115 113 103 88 77 98 96 133
265 155 148 200 222 155 195 315 106 108 109 116 114 105 110 120 121 118 117 118 116 113 109 108 108 116 120 117 111 107 126 134 133 130 126 123 121 117 114 109 87 63 78 88